TimeHST,TemperatureF,Dew PointF,Humidity,Sea Level PressureIn,VisibilityMPH,Wind Direction,Wind SpeedMPH,Gust SpeedMPH,PrecipitationIn,Events,Conditions,WindDirDegrees,DateUTC
12:08 AM,69.8,66.2,88,30.02,10.0,South,10.4,-,N/A,,Mostly Cloudy,170,2013-01-28 10:08:00
12:40 AM,69.8,66.2,88,30.01,10.0,South,9.2,-,N/A,,Mostly Cloudy,190,2013-01-28 10:40:00
12:56 AM,70.0,65.8,87,29.95,10.0,South,11.5,-,N/A,,Mostly Cloudy,180,2013-01-28 10:56:00
1:22 AM,69.8,66.2,88,30.00,10.0,SSE,8.1,-,N/A,,Mostly Cloudy,160,2013-01-28 11:22:00
1:56 AM,69.8,66.2,88,30.00,10.0,SSE,10.4,-,N/A,Rain,Light Rain,160,2013-01-28 11:56:00
2:56 AM,68.9,64.9,87,29.93,10.0,SSE,10.4,-,0.00,,Partly Cloudy,150,2013-01-28 12:56:00
3:56 AM,68.0,64.9,90,29.93,10.0,SE,6.9,-,0.00,Rain,Light Rain,140,2013-01-28 13:56:00
4:56 AM,66.9,64.9,93,29.93,10.0,SE,8.1,-,0.02,Rain,Light Rain,140,2013-01-28 14:56:00
5:56 AM,66.9,64.9,93,29.94,10.0,SE,5.8,-,0.00,Rain,Light Rain,140,2013-01-28 15:56:00
6:56 AM,65.8,64.9,97,29.96,10.0,East,4.6,-,0.01,Rain,Light Rain,100,2013-01-28 16:56:00
7:06 AM,66.2,66.2,100,30.01,10.0,East,4.6,-,0.00,Rain,Light Rain,80,2013-01-28 17:06:00
7:32 AM,66.2,66.2,100,30.02,10.0,ESE,5.8,-,0.00,Rain,Light Rain,120,2013-01-28 17:32:00
7:56 AM,66.9,65.8,96,29.97,10.0,East,8.1,-,0.00,Rain,Light Rain,100,2013-01-28 17:56:00
8:05 AM,66.2,66.2,100,30.02,3.0,ESE,8.1,-,0.02,Rain,Heavy Rain,110,2013-01-28 18:05:00
8:07 AM,66.2,66.2,100,30.02,2.0,ESE,6.9,-,0.04,Rain,Heavy Rain,110,2013-01-28 18:07:00
8:11 AM,66.2,64.4,94,30.03,1.5,East,6.9,-,0.06,Rain,Heavy Rain,100,2013-01-28 18:11:00
8:19 AM,66.2,66.2,100,30.03,1.0,East,6.9,-,0.10,Rain,Heavy Rain,100,2013-01-28 18:19:00
8:24 AM,66.2,66.2,100,30.03,1.2,East,6.9,-,0.10,Rain,Light Rain,90,2013-01-28 18:24:00
8:26 AM,66.2,66.2,100,30.03,1.8,East,8.1,-,0.10,Rain,Light Rain,100,2013-01-28 18:26:00
8:28 AM,66.2,66.2,100,30.03,4.0,East,8.1,-,0.10,Rain,Light Rain,90,2013-01-28 18:28:00
8:44 AM,68.0,66.2,94,30.04,10.0,East,4.6,-,0.10,Rain,Light Rain,90,2013-01-28 18:44:00
8:56 AM,68.0,66.9,96,29.99,2.5,NNW,3.5,-,0.12,Rain,Rain,340,2013-01-28 18:56:00
9:00 AM,68.0,66.2,94,30.04,1.2,NW,4.6,-,0.03,Rain,Heavy Rain,320,2013-01-28 19:00:00
9:05 AM,66.2,66.2,100,30.04,0.8,Variable,4.6,-,0.09,Rain,Heavy Rain,0,2013-01-28 19:05:00
9:15 AM,66.2,66.2,100,30.04,1.0,NNE,5.8,-,0.11,Rain,Light Rain,20,2013-01-28 19:15:00
9:17 AM,66.2,66.2,100,30.04,1.5,Variable,3.5,-,0.13,Rain,Rain,0,2013-01-28 19:17:00
9:20 AM,66.2,66.2,100,30.04,1.2,Variable,3.5,-,0.15,Rain,Heavy Rain,0,2013-01-28 19:20:00
9:33 AM,66.2,66.2,100,30.04,2.0,North,5.8,-,0.18,Rain,Light Rain,360,2013-01-28 19:33:00
9:41 AM,66.2,66.2,100,30.04,9.0,WSW,6.9,-,0.19,Rain,Rain,250,2013-01-28 19:41:00
9:45 AM,66.2,66.2,100,30.04,2.0,SW,5.8,-,0.20,Rain,Heavy Rain,230,2013-01-28 19:45:00
9:47 AM,66.2,66.2,100,30.04,1.2,West,10.4,-,0.20,Rain,Rain,260,2013-01-28 19:47:00
9:56 AM,65.8,64.9,97,30.01,0.2,SW,10.4,-,0.21,Fog-Rain,Rain,230,2013-01-28 19:56:00
10:08 AM,64.4,64.4,100,30.06,0.5,South,5.8,-,0.08,Fog-Rain,Heavy Rain,190,2013-01-28 20:08:00
10:18 AM,64.4,64.4,100,30.05,1.0,NNE,3.5,-,0.12,Rain,Heavy Rain,30,2013-01-28 20:18:00
10:23 AM,64.4,64.4,100,30.05,1.5,North,3.5,-,0.13,Rain,Heavy Rain,360,2013-01-28 20:23:00
10:28 AM,64.4,64.4,100,30.05,2.5,Calm,Calm,-,0.13,Rain,Light Rain,0,2013-01-28 20:28:00
10:36 AM,64.4,64.4,100,30.04,10.0,ENE,4.6,-,0.13,Rain,Light Rain,60,2013-01-28 20:36:00
10:56 AM,66.9,64.9,93,30.00,10.0,ENE,5.8,-,0.13,Rain,Light Rain,70,2013-01-28 20:56:00
11:56 AM,68.0,64.9,90,29.98,5.0,Variable,3.5,-,0.00,Rain,Light Rain,0,2013-01-28 21:56:00
12:56 PM,72.0,63.0,73,29.94,10.0,East,4.6,-,0.01,,Partly Cloudy,80,2013-01-28 22:56:00
1:56 PM,72.0,61.0,68,29.90,10.0,ESE,11.5,-,N/A,,Partly Cloudy,120,2013-01-28 23:56:00
2:56 PM,70.9,63.9,78,29.89,10.0,SE,13.8,-,0.00,,Partly Cloudy,130,2013-01-29 00:56:00
3:56 PM,70.0,63.9,81,29.90,10.0,East,9.2,-,0.00,,Scattered Clouds,100,2013-01-29 01:56:00
4:56 PM,70.0,63.0,78,29.91,10.0,SE,8.1,-,0.00,,Partly Cloudy,130,2013-01-29 02:56:00
5:56 PM,68.9,64.9,87,29.93,10.0,SSE,8.1,-,N/A,,Scattered Clouds,150,2013-01-29 03:56:00
6:29 PM,68.0,66.2,94,29.99,10.0,Variable,5.8,-,0.00,Rain,Light Rain,0,2013-01-29 04:29:00
6:45 PM,66.2,66.2,100,29.99,10.0,SSE,5.8,-,0.00,,Scattered Clouds,150,2013-01-29 04:45:00
6:56 PM,66.9,65.8,96,29.95,10.0,SSE,6.9,-,0.00,,Scattered Clouds,150,2013-01-29 04:56:00
7:17 PM,66.2,64.4,94,29.99,10.0,SSE,10.4,-,N/A,,Mostly Cloudy,160,2013-01-29 05:17:00
7:26 PM,66.2,66.2,100,30.00,10.0,SE,10.4,-,N/A,,Mostly Cloudy,140,2013-01-29 05:26:00
7:36 PM,66.2,64.4,94,30.00,10.0,SE,10.4,-,N/A,,Mostly Cloudy,140,2013-01-29 05:36:00
7:56 PM,65.8,63.9,93,29.96,10.0,ESE,9.2,-,N/A,,Scattered Clouds,120,2013-01-29 05:56:00
8:56 PM,64.9,59.9,84,29.97,10.0,East,5.8,-,N/A,,Mostly Cloudy,80,2013-01-29 06:56:00
9:56 PM,65.8,59.9,81,29.98,10.0,South,3.5,-,N/A,,Mostly Cloudy,190,2013-01-29 07:56:00
10:56 PM,63.0,57.9,84,29.98,10.0,East,4.6,-,N/A,,Partly Cloudy,90,2013-01-29 08:56:00
11:56 PM,63.9,61.0,90,29.97,10.0,South,4.6,-,N/A,,Mostly Cloudy,190,2013-01-29 09:56:00